New Troy, MI (49119)

10:37 AM EST on December 06, 2016 (GMT -0500)
Sawyer, MI | | Change Station

Elev 653 ft 41.87 °N, 86.58 °W | Updated 4 seconds ago

Overcast
Overcast
36.3 °F
Feels Like 36 °F
N
0.0
Wind Variable Wind from SE
Gusts 0.0 mph

Today
High -- | Low -- °F
--% Chance of Precip.
Yesterday
High -- | Low -- °F
Precip. -- in
Pressure 29.78 in
Visibility 7.0 miles
Clouds Overcast 8500 ft
Windchill 36 °F
Dew Point 29 °F
Humidity 75%
Rainfall 0.00 in
Snow Depth Not available.
7:59 AM 5:15 PM
Waxing Crescent, 42% visible
METAR KSBN 061454Z 11007KT 7SM OVC085 01/M02 A2975 RMK AO2 SLP084 T00061017 58016
Pressure 29.78 in
Visibility 7.0 miles
Clouds Overcast 8500 ft
Windchill 36 °F
Dew Point 29 °F
Humidity 75%
Rainfall 0.00 in
Snow Depth Not available.
7:59 AM 5:15 PM
Waxing Crescent, 42% visible
METAR KSBN 061454Z 11007KT 7SM OVC085 01/M02 A2975 RMK AO2 SLP084 T00061017 58016

10-Day Weather Forecast

Almanac

Astronomy

Dec. 06, 2016 Rise Set
Actual Time
Civil Twilight
Nautical Twilight
Astronomical Twilight
Moon
Length of Visible Light
Length of Day
Tomorrow will be .
, % of the Moon is Illuminated

Today's Extremes

State Highs State Lows

Community

WunderPhotos

Upload Photos

1,955,957 photos uploaded!

WunderBlog® & News

Nearby

Air Quality

  Air Quality AQ Index Pollutant
Not available.

Snow Depth

Station Depth Elevation

Earthquake Activity

City Distance Mag. Time & Date
Minimum magnitude displayed is 2.5.

Coastal Water Temperatures

Place Temperature

Stations

Nearby Weather Stations

Station Location Temp. Windchill Dew Point Humidity Wind Precip. Elev Updated Type
                   

Watches & Warnings

There are currently no watches in effect.